Regional Weather Roundup
Issued by NWS

Home | Current Version | Previous Version | Graphics & Text | Print | Product List | Glossary On
Versions: 1 2 3 4 5 6 7 8 9 10 11 12 13 14 15 16 17 18 19 20 21 22 23 24 25 26 27 28 29 30 31 32 33 34 35 36 37 38 39 40 41 42 43 44 45 46 47 48 49 50
000
ASUS45 KSLC 311610
RWRUT

UTAH REGIONAL WEATHER ROUNDUP
NATIONAL WEATHER SERVICE SALT LAKE CITY UT
900 AM MST SAT JAN 31 2015

UTZ001>011-023>025-311700-

NORTHERN UTAH

CITY           SKY/WX    TMP DP  RH WIND       PRES   REMARKS
BRIGHAM CITY   MOSUNNY   34  27  75 W7        30.02R WCI  28
HILL AFB       CLOUDY    37  29  74 CALM      30.00S
LOGAN          PTSUNNY   32  28  85 S5        30.05R WCI  27
OGDEN          CLOUDY    34  29  82 SW5       30.01R WCI  30
PROVO AIRPORT  PTSUNNY   37  34  87 NW7       30.01R WCI  32
SALT LAKE CITY PTSUNNY   38  31  76 NW6       30.02R WCI  33
VERNAL         CLOUDY    35  34  96 CALM      29.95R FOG
WENDOVER       SUNNY     37  23  56 CALM      30.06R
HEBER CITY     CLOUDY    34  30  86 CALM      30.00R
WEST JORDAN    CLOUDY    39  36  87 NW8       30.02R WCI  34

$$

UTZ012>022-026-027-311700-

SOUTHERN/CENTRAL UTAH

CITY           SKY/WX    TMP DP  RH WIND       PRES   REMARKS
BLANDING       CLOUDY    33  33 100 CALM      30.00R
BRYCE CANYON   CLOUDY    31  29  92 NW6       29.95R WCI  25
CEDAR CITY     CLOUDY    35  33  92 N10       29.96R WCI  27
DELTA          CLOUDY    35  33  92 N9        30.01R WCI  28
HANKSVILLE     CLOUDY    37  36  93 CALM      29.97S
MILFORD        MIX PCPN  35  33  92 N10       30.00R WCI  27
MOAB/CYNLANDS  LGT RAIN  39  37  92 W3        29.92R
PRICE          CLOUDY    35  33  92 E3        29.92S FOG
ST GEORGE      CLOUDY    48  39  71 NE5       29.95R
KANAB          CLOUDY    39  37  93 NE3       29.97R

$$

REGIONAL REPORTS     COLORADO/ARIZONA

CITY           SKY/WX    TMP DP  RH WIND       PRES   REMARKS
CRAIG, CO        N/A     32  30  92 W9        29.93S FOG     WCI  24
GRAND JUNCTION LGT RAIN  38  37  97 NW5       29.92R WCI  34
RIFLE          LGT SNOW  34  32  92 CALM      29.92R FOG
MONTROSE       LGT RAIN  35  34  96 CALM      29.93R
CORTEZ         CLOUDY    34  33  96 CALM      29.92R
PAGE, AZ       NOT AVBL
GRAND CANYON   PTSUNNY   37  36  96 CALM      29.92R
KINGMAN        CLOUDY    46  44  93 N8        29.89R
FLAGSTAFF      CLOUDY    36  35  96 CALM      29.91R

$$

REGIONAL REPORTS    NEVADA/IDAHO/WYOMING

CITY           SKY/WX    TMP DP  RH WIND       PRES   REMARKS
LAS VEGAS, NV  CLOUDY    50  46  86 S9        29.88R
ELY            CLOUDY    32  29  88 N9        30.06R WCI  24
ELKO           SUNNY     27  23  85 W3        30.11R
POCATELLO, ID  CLOUDY    31  30  96 W9        30.11S WCI  23
BURLEY         CLOUDY    34  28  79 SW6       30.12R WCI  29
EVANSTON, WY   MOSUNNY   30  26  85 W3        30.00R
ROCK SPRINGS   PTSUNNY   26  25  96 W9        29.96R WCI  17
KEMMERER       CLOUDY    28  27  93 W10       29.98F FOG     WCI  19

$$


USA.gov is the U.S. government's official web portal to all federal, state and local government web resources and services.